| time (UTC) | temp F | wind direction | speed MPH | gust MPH | rain 1hr in | rain 24hr in | rain mn in | humidity % | barometer mb |
| 20260503213024 | 68 | 286 | 0.0 | 0.0 | 0.00 | 0.00 | 0.00 | 21 | 997.4 |
| 20260503211606 | 68 | 306 | 0.0 | 0.0 | 0.00 | 0.00 | 0.00 | 23 | 997.6 |
| 20260503210031 | 68 | 209 | 0.0 | 0.0 | 0.00 | 0.00 | 0.00 | 22 | 997.7 |
| 20260503204501 | 68 | 229 | 0.0 | 0.0 | 0.00 | 0.00 | 0.00 | 23 | 998.0 |
| 20260503203047 | 68 | 257 | 0.0 | 0.0 | 0.00 | 0.00 | 0.00 | 22 | 998.0 |
| 20260503201517 | 68 | 331 | 0.0 | 0.0 | 0.00 | 0.00 | 0.00 | 23 | 998.3 |
| 20260503200100 | 67 | 320 | 0.0 | 0.0 | 0.00 | 0.00 | 0.00 | 24 | 998.5 |
| 20260503194525 | 66 | 350 | 0.0 | 0.0 | 0.00 | 0.00 | 0.00 | 23 | 998.6 |
| 20260503193120 | 66 | 355 | 0.0 | 0.0 | 0.00 | 0.00 | 0.00 | 23 | 998.8 |
| 20260503191603 | 66 | 355 | 0.0 | 0.0 | 0.00 | 0.00 | 0.00 | 23 | 998.9 |
| 20260503190016 | 65 | 336 | 0.0 | 0.0 | 0.00 | 0.00 | 0.00 | 21 | 999.1 |
| 20260503184539 | 66 | 5 | 0.0 | 0.0 | 0.00 | 0.00 | 0.00 | 22 | 999.3 |
| 20260503183005 | 66 | 234 | 0.0 | 0.0 | 0.00 | 0.00 | 0.00 | 18 | 999.4 |
| 20260503181550 | 66 | 289 | 0.0 | 0.0 | 0.00 | 0.00 | 0.00 | 18 | 999.6 |
| 20260503180014 | 65 | 262 | 0.0 | 0.0 | 0.00 | 0.00 | 0.00 | 16 | 999.8 |
| 20260503174554 | 64 | 292 | 0.0 | 0.0 | 0.00 | 0.00 | 0.00 | 17 | 999.8 |
| 20260503173024 | 64 | 305 | 0.0 | 0.0 | 0.00 | 0.00 | 0.00 | 18 | 999.9 |
| 20260503171609 | 64 | 311 | 0.0 | 0.0 | 0.00 | 0.00 | 0.00 | 18 | 1000.0 |
| 20260503160106 | 62 | 314 | 0.0 | 0.0 | 0.00 | 0.00 | 0.00 | 40 | 1000.0 |
| 20260503130106 | 49 | 319 | 0.0 | 0.0 | 0.00 | 0.00 | 0.00 | 78 | 1000.2 |
| 20260503081531 | 44 | 53 | 0.0 | 0.0 | 0.00 | 0.00 | 0.00 | 80 | 1000.0 |
| 20260503080109 | 44 | 44 | 0.0 | 0.0 | 0.00 | 0.00 | 0.00 | 80 | 1000.1 |
| 20260503071522 | 48 | 42 | 0.0 | 0.0 | 0.00 | 0.00 | 0.00 | 75 | 1000.6 |
| 20260503060105 | 50 | 306 | 0.0 | 0.0 | 0.00 | 0.00 | 0.00 | 73 | 1001.8 |
| 20260503054557 | 50 | 306 | 0.0 | 0.0 | 0.00 | 0.00 | 0.00 | 74 | 1002.0 |
| 20260503053004 | 51 | 306 | 0.0 | 0.0 | 0.00 | 0.00 | 0.00 | 73 | 1002.2 |
| 20260503051539 | 51 | 306 | 0.0 | 0.0 | 0.00 | 0.00 | 0.00 | 73 | 1002.3 |
| 20260503050008 | 51 | 306 | 0.0 | 0.0 | 0.00 | 0.00 | 0.00 | 74 | 1002.4 |
| 20260503044546 | 51 | 306 | 0.0 | 0.0 | 0.00 | 0.00 | 0.00 | 76 | 1002.6 |
| 20260503043018 | 51 | 308 | 0.0 | 0.0 | 0.00 | 0.00 | 0.00 | 75 | 1002.7 |
| 20260503041553 | 52 | 228 | 0.0 | 0.0 | 0.00 | 0.00 | 0.00 | 72 | 1002.8 |
| 20260503040021 | 53 | 228 | 0.0 | 0.0 | 0.00 | 0.00 | 0.00 | 69 | 1002.9 |
| 20260503034558 | 54 | 230 | 0.0 | 0.0 | 0.00 | 0.00 | 0.00 | 63 | 1003.3 |
| 20260503033028 | 54 | 230 | 0.0 | 0.0 | 0.00 | 0.00 | 0.00 | 61 | 1003.4 |
| 20260503031607 | 55 | 230 | 0.0 | 0.0 | 0.00 | 0.00 | 0.00 | 59 | 1003.7 |
| 20260503030037 | 56 | 263 | 0.0 | 0.0 | 0.00 | 0.00 | 0.00 | 57 | 1004.0 |
| 20260503024504 | 57 | 290 | 0.0 | 0.0 | 0.00 | 0.00 | 0.00 | 54 | 1004.1 |
| 20260503023047 | 58 | 265 | 0.0 | 0.0 | 0.00 | 0.00 | 0.00 | 46 | 1003.8 |
| 20260503021512 | 59 | 233 | 0.0 | 0.0 | 0.00 | 0.00 | 0.00 | 45 | 1003.8 |
| 20260503020051 | 59 | 281 | 0.0 | 0.0 | 0.00 | 0.00 | 0.00 | 42 | 1003.7 |
| 20260503014521 | 59 | 269 | 0.0 | 0.0 | 0.00 | 0.00 | 0.00 | 42 | 1003.7 |
| 20260503013105 | 59 | 275 | 0.0 | 0.0 | 0.00 | 0.00 | 0.00 | 40 | 1003.6 |
| 20260503011529 | 60 | 306 | 0.0 | 0.0 | 0.00 | 0.00 | 0.00 | 39 | 1003.5 |
| 20260503010109 | 60 | 286 | 0.0 | 0.0 | 0.00 | 0.00 | 0.00 | 37 | 1003.5 |
| 20260503004540 | 60 | 217 | 0.0 | 0.0 | 0.00 | 0.00 | 0.00 | 37 | 1003.5 |
| 20260503003012 | 61 | 221 | 0.0 | 0.0 | 0.00 | 0.00 | 0.00 | 37 | 1003.5 |
| 20260503001553 | 61 | 223 | 0.0 | 0.0 | 0.00 | 0.00 | 0.00 | 36 | 1003.5 |
| 20260503000024 | 62 | 221 | 0.0 | 0.0 | 0.00 | 0.00 | 0.00 | 35 | 1003.6 |
| 20260502234557 | 62 | 207 | 0.0 | 0.0 | 0.00 | 0.00 | 0.00 | 34 | 1003.7 |
| 20260502233036 | 62 | 194 | 0.0 | 0.0 | 0.00 | 0.00 | 0.00 | 33 | 1003.8 |
| 20260502231607 | 62 | 278 | 0.0 | 0.0 | 0.00 | 0.00 | 0.00 | 33 | 1004.1 |
| 20260502230032 | 62 | 187 | 0.0 | 0.0 | 0.00 | 0.00 | 0.00 | 33 | 1004.2 |
| 20260502224612 | 62 | 192 | 0.0 | 0.0 | 0.00 | 0.00 | 0.00 | 33 | 1004.4 |
| 20260502223043 | 63 | 203 | 0.0 | 0.0 | 0.00 | 0.00 | 0.00 | 31 | 1004.6 |
| 20260502221516 | 64 | 193 | 0.0 | 0.0 | 0.00 | 0.00 | 0.00 | 30 | 1004.7 |
| 20260502220049 | 64 | 263 | 0.0 | 0.0 | 0.00 | 0.00 | 0.00 | 30 | 1005.0 |
| 20260502214505 | 64 | 173 | 0.0 | 0.0 | 0.00 | 0.00 | 0.00 | 28 | 1005.1 |